Regional Weather Roundup
Issued by NWS Goodland, KS

Home | Current Version | Previous Version | Text Only | Print | Product List | Glossary Off
Versions: 1 2 3 4 5 6 7 8 9 10 11 12 13 14 15 16 17 18 19 20 21 22 23 24 25 26 27 28 29 30 31 32 33 34 35 36 37 38 39 40 41 42 43 44 45 46 47 48 49 50

000
ASUS43 KGLD 242159
RWRGLD

GOODLAND FORECAST AREA HOURLY WEATHER ROUNDUP
NATIONAL WEATHER SERVICE GOODLAND KS
400 PM MDT MON JUL 24 2017

...OFFICIAL OBSERVATIONS...

CITY           SKY/WX    TMP DP  RH WIND       PRES   REMARKS
GOODLAND KS    SUNNY     92  62  36 S18       29.97F
HILL CITY KS   SUNNY     99  51  19 S14G22    29.93F
IMPERIAL NEB   SUNNY     98  53  22 S21G31    29.92F
MCCOOK NEB     SUNNY     99  52  20 S22G31    29.91F
AKRON CO       SUNNY     95  45  17 SE13      29.98F
BURLINGTON CO  SUNNY     93  54  26 S17G24    30.01F
LIMON CO       SUNNY     89  48  24 S17G24    30.06F
$$

...UNOFFICIAL OBSERVATIONS...

CITY           SKY/WX    TMP DP  RH WIND       PRES   REMARKS
LENORA KS        N/A     96  32  10 MISG        N/A
NORTON KS      SUNNY     99  36  11 S14G22    29.92F
SHARON SPRINGS   N/A     94  63  35 SW12G20     N/A
TRENTON NEB      N/A    100  32   9 S12G18      N/A
KIT CARSON CO    N/A     93  57  29 MISG        N/A
$$




USA.gov is the U.S. government's official web portal to all federal, state and local government web resources and services.